TIME,DELAY(SENSOR),PRES,OXYGEN,RAWTEMP,T(OPTODE),TCPHASE,FLUOR,BETA(BETA700),BETA(BETA412),BETA(BETA440),CDOM,C(CSC),ED(ED412.40),ED(ED444.00),ED(ED489.70),ED(ED554.30),LU(LU411.80),LU(LU443.40),LU(LU489.60),LU(LU554.10),COMP,TILTX,TILTY,CHECK
1354678512,5804,874.7100219726562000,45.4387588500976560,666.3508300781250000,4.4186692237854000,54.2717781066894500,52,101,85,79,81,15213,2147752832,2147419684,2148009499,2147874816,2147645531,2147063954,2148262427,2147195181,2188,4,13,45177
1354682109,5811,953.2199707031250000,49.3677101135253900,674.5615234375000000,4.1473941802978520,53.8137283325195300,52,99,90,80,81,15217,2147754276,2147419876,2148008347,2147874761,2147644114,2147056338,2148266313,2147196214,1156,4,13,56824
1354685709,5807,971.1099853515625000,50.0798912048339840,674.6721191406250000,4.1437377929687500,53.7211799621582000,53,99,89,79,80,15212,2147754441,2147421577,2148011026,2147874130,2147640859,2147056676,2148263798,2147192411,88,5,13,9095
1354689309,5810,980.7299804687500000,49.4921607971191400,675.4575805664062000,4.1177430152893070,53.8066596984863300,53,98,85,79,81,15212,2147756790,2147420315,2148012333,2147873380,2147645906,2147054665,2148265472,2147196251,265,4,13,41410
1354692909,5807,988.8400268554688000,49.2366104125976560,674.8983764648438000,4.1362481117248535,53.8343696594238300,52,99,89,79,81,15211,2147755090,2147421842,2148007177,2147870674,2147643547,2147060306,2148261824,2147200804,223,4,13,55556
1354696509,5806,992.5599975585938000,49.0449218750000000,674.8427734375000000,4.1380901336669920,53.8663291931152340,53,100,88,78,81,15211,2147755364,2147419209,2148008704,2147873782,2147645156,2147052370,2148259821,2147198006,3467,4,13,6198
1354700109,5810,987.5800170898438000,48.9390296936035160,674.8402709960938000,4.1381697654724120,53.8806915283203100,52,101,91,80,81,15210,2147755501,2147421385,2148009773,2147875117,2147644662,2147054162,2148260772,2147195547,249,4,13,16303
1354703709,5811,986.3499755859375000,48.7762298583984400,675.2188110351562000,4.1256480216979980,53.9073600769043000,52,99,87,80,80,15198,2147753435,2147418194,2148008438,2147874761,2147641874,2147058459,2148259776,2147196681,428,4,13,14770
1354707309,5809,991.0999755859375000,48.6339607238769500,675.5147705078125000,4.1158499717712400,53.9308204650878900,52,97,87,79,80,15203,2147755739,2147423890,2148009453,2147876269,2147644772,2147053522,2148260699,2147199213,243,4,13,17402
1354710909,5810,1003.0800170898438000,48.8169097900390600,674.9199218750000000,4.1355381011962890,53.8953399658203100,52,100,89,79,81,15203,2147756845,2147419318,2148008667,2147875648,2147643638,2147054381,2148266221,2147197677,3546,4,13,6021
1354714509,5811,1002.3300170898438000,48.7283287048339840,674.8958129882812000,4.1363348960876465,53.9044914245605500,52,100,87,79,80,15206,2147753810,2147420105,2148009956,2147876800,2147643108,2147059666,2148265408,2147195392,20,4,13,54981
1354718109,5810,1001.6799926757812000,48.5949592590332000,675.0645141601562000,4.1307539939880370,53.9291496276855500,52,99,87,80,81,15198,2147756233,2147420992,2148010624,2147876260,2147644891,2147059090,2148265088,2147198564,3307,4,13,13643
1354721709,5806,997.1699829101562000,48.7680206298828100,674.9835205078125000,4.1334319114685060,53.9032516479492200,53,97,89,79,82,15205,2147754514,2147421878,2148011026,2147876160,2147644498,2147057892,2148261385,2147196041,3082,4,13,5862
1354725309,5810,994.2299804687500000,48.6267013549804700,675.1091918945312000,4.1292738914489750,53.9284095764160160,52,99,86,79,82,15206,2147755108,2147422464,2148012635,2147873709,2147644909,2147055945,2148259611,2147196873,3539,4,13,62525
1354728909,5810,1000.1799926757812000,48.7256698608398440,674.9464111328125000,4.1346631050109860,53.9109306335449200,52,100,87,79,81,15205,2147758189,2147420525,2148009700,2147873261,2147643766,2147057014,2148260598,2147196644,3042,4,13,16651
1354732509,5809,997.0300292968750000,48.5374183654785160,675.8734741210938000,4.1039772033691410,53.9492988586425800,53,96,90,79,81,15204,2147755392,2147419556,2148011593,2147875264,2147645092,2147053787,2148260672,2147195410,395,4,13,40494
1354736109,5811,997.6300048828125000,48.5298309326171900,674.8825073242188000,4.1367740631103520,53.9338188171386700,52,99,86,81,81,15203,2147758509,2147424109,2148008237,2147876781,2147642770,2147058916,2148264941,2147195026,88,4,13,10769
1354739709,5809,1002.1500244140625000,48.0409889221191400,675.0582275390625000,4.1309618949890140,54.0052299499511700,52,107,86,79,81,15205,2147754130,2147420187,2148007478,2147874267,2147645211,2147058651,2148264182,2147195209,120,4,13,26611
1354743309,5811,1006.9199829101562000,48.5908889770507800,675.0494995117188000,4.1312479972839355,53.9301109313964840,52,98,85,79,81,15203,2147755931,2147422272,2148011419,2147876004,2147644406,2147058139,2148265408,2147197467,3320,4,13,5050
1354746909,5809,1010.1500244140625000,48.5267601013183600,675.0079956054688000,4.1326217651367190,53.9355506896972660,52,103,87,79,81,15202,2147755501,2147418304,2148009216,2147874349,2147644443,2147055606,2148262482,2147195017,3512,4,13,8005
1354750509,5809,1006.4299926757812000,48.3759498596191400,675.0399169921875000,4.1315689086914060,53.9616889953613300,52,98,87,79,80,15203,2147757284,2147421330,2148009819,2147874962,2147642578,2147054893,2148262738,2147196690,196,4,13,23156
1354754109,5809,1004.9600219726562000,48.5107803344726560,674.6964111328125000,4.1429328918457030,53.9368400573730500,52,99,87,78,81,15175,2147754505,2147420626,2148011318,2147875218,2147644608,2147058880,2148259776,2147197266,283,4,13,1830
1354757709,5808,995.0300292968750000,48.0937881469726560,675.7517089843750000,4.1080088615417480,54.0049705505371100,52,99,87,78,81,15177,2147756425,2147423003,2148011072,2147872777,2147642944,2147057325,2148262500,2147193408,327,4,13,54586
1354761309,5807,993.5800170898438000,48.9554481506347660,677.1730957031250000,4.0609488487243650,53.9030494689941400,52,99,89,80,82,15174,2147757869,2147421266,2148008896,2147877586,2147644489,2147053440,2148260224,2147196086,3467,4,13,17447
1354764909,5806,987.6799926757812000,49.2720603942871100,678.0186767578125000,4.0329418182373050,53.8710289001464840,52,100,86,79,80,15176,2147755529,2147421988,2148009042,2147877476,2147647131,2147055588,2148266432,2147199990,3294,4,13,56496
1354768509,5812,995.2399902343750000,49.6998596191406250,678.2213745117188000,4.0262279510498050,53.8148002624511700,53,101,87,79,82,15174,2147758857,2147424118,2148007881,2147877083,2147646125,2147054756,2148262784,2147201700,293,4,13,20321
1354772109,5809,999.5900268554688000,49.7921791076660160,678.3391113281250000,4.0223288536071780,53.8059692382812500,53,100,90,79,81,15172,2147758454,2147415533,2148010304,2147875739,2147645595,2147058112,2148260864,2147198098,3424,4,13,57268
1354775709,5808,1000.8499755859375000,49.4227409362793000,677.2332153320312000,4.0589599609375000,53.8431510925293000,52,98,84,79,80,15174,2147755958,2147421101,2148010532,2147874962,2147645403,2147056448,2148259337,2147196379,117,4,13,43875
1354779309,5808,993.9899902343750000,48.8292999267578100,676.6660156250000000,4.0777420997619630,53.9165000915527340,52,104,92,80,81,15172,2147759414,2147423204,2148008795,2147875190,2147647579,2147054665,2148262262,2147196562,3467,4,13,26699
1354782909,5807,1002.9799804687500000,48.7001304626464840,676.4381713867188000,4.0852828025817870,53.9300308227539060,53,99,88,78,81,15172,2147753526,2147417773,2148008576,2147874505,2147644416,2147055936,2148263149,2147194349,520,4,13,59234
1354786509,5808,1008.8499755859375000,48.5592193603515600,675.0599975585938000,4.1309008598327640,53.9312705993652340,53,101,86,77,81,15175,2147753627,2147420022,2148009042,2147874642,2147646180,2147056109,2148261074,2147197357,384,4,13,45413
1354790109,5808,1007.7399902343750000,48.4728012084960940,676.0125122070312000,4.0993771553039550,53.9573287963867200,53,102,87,80,81,15171,2147756946,2147418048,2148009289,2147875309,2147643291,2147059547,2148260635,2147194258,236,4,13,40639
1354793709,5809,1006.9299926757812000,48.3556213378906250,675.0089721679688000,4.1325888633728030,53.9582595825195300,53,98,86,79,81,15173,2147756845,2147423478,2148008749,2147872740,2147645403,2147060836,2148262628,2147196324,504,4,13,59749
1354797309,5806,1000.4899902343750000,47.7901306152343750,675.7083129882812000,4.1094441413879395,54.0533485412597660,52,99,86,80,80,15171,2147754505,2147421165,2148004470,2147875145,2147645348,2147056320,2148264246,2147195190,625,4,13,44085
1354800909,5811,998.9099731445312000,48.3674507141113300,676.1790161132812000,4.0938639640808105,53.9762496948242200,53,102,84,80,81,15171,2147758637,2147416201,2148006436,2147872054,2147641124,2147054336,2148263936,2147198637,3569,4,13,57112
1354804509,5806,1001.5200195312500000,48.5513381958007800,676.3464965820312000,4.0883197784423830,53.9541397094726560,53,98,86,79,80,15171,2147757348,2147421686,2148010130,2147874413,2147643053,2147056091,2148260022,2147195794,3596,4,13,34572
1354808109,5807,999.0000000000000000,48.5220718383789060,676.9780273437500000,4.0674099922180180,53.9648704528808600,52,100,87,79,81,15163,2147756233,2147423424,2148008347,2147875858,2147645184,2147054747,2148263561,2147196717,103,4,13,53543
1354811709,5810,1006.2199707031250000,48.7159690856933600,677.8950805664062000,4.0370388031005860,53.9508705139160160,53,98,85,80,82,15171,2147756635,2147417435,2148008237,2147876059,2147643849,2147059419,2148264118,2147196690,3425,4,13,50231
1354815309,5808,1014.5999755859375000,49.4880905151367200,676.8400878906250000,4.0719780921936035,53.8248405456543000,53,99,87,79,80,15165,2147757330,2147419904,2148008758,2147871506,2147644864,2147058020,2148264804,2147196589,3175,4,13,59360
1354818909,5809,1011.5000000000000000,48.2854804992675800,674.9838256835938000,4.1334228515625000,53.9743499755859400,52,100,87,80,81,15164,2147755126,2147422582,2148011620,2147875501,2147645266,2147055670,2148258852,2147195602,532,4,13,28413
1354822509,5810,1004.4899902343750000,47.4874801635742200,675.7183227539062000,4.1091160774230960,54.0932083129882800,53,99,88,78,81,15167,2147756772,2147420708,2148008539,2147874788,2147643200,2147058249,2148261878,2147198427,3017,4,13,33414
1354823155,5807,1011.4799804687500000,47.6900215148925800,675.8566284179688000,4.1045379638671875,54.0610694885253900,53,101,84,79,80,15206,2147755620,2147419830,2148007268,2147874934,2147644937,2147056621,2148266953,2147196617,97,4,13,1231
